Baltimore, MD

11:50 PM EST on November 18, 2017 (GMT -0500)
Baltimore-Washington International

Weather History for KBWI - September, 2014

Change the Weather History Date:

Wednesday, September 10, 2014

  Actual Average Record
Temperature  
Mean Temperature 73 °F 70 °F  
Max Temperature 79 °F 80 °F 98 °F (1983)
Min Temperature 67 °F 60 °F 41 °F (1956)
Degree Days  
Heating Degree Days 0 1  
Month to date heating degree days 0 2  
Since 1 July heating degree days 0 3  
Cooling Degree Days 8 6  
Month to date cooling degree days 115 68  
Year to date cooling degree days 1032 1078  
Growing Degree Days 22 (Base 50)    
Moisture  
Dew Point 62 °F    
Average Humidity 70    
Maximum Humidity 81    
Minimum Humidity 58    
Precipitation  
Precipitation 0.00 in 0.12 in 3.72 in (1968)
Month to date precipitation 0.79 1.21  
Year to date precipitation 39.06 29.06  
Snow  
Snow 0.00 in 0.00 in - ()
Month to date snowfall 0.0 0.0  
Since 1 July snowfall 0.0 0.0  
Snow Depth 0.00 in    
Sea Level Pressure  
Sea Level Pressure 30.08 in    
Wind  
Wind Speed 5 mph (East)    
Max Wind Speed 10 mph    
Max Gust Speed 14 mph    
Visibility 10 miles    
Events      
T = Trace of Precipitation, MM = Missing Value Source: NWS Daily Summary

Daily Weather History Graph

Daily Weather History Graph

Search for Another Location

Airport or City:

Trip Planner

Search our weather history database for the weather conditions in past years. The results will help you decide how hot, cold, wet, or windy it might be!

Date:

Astronomy

Sep. 10, 2014 Rise Set
Actual Time 6:43 AM EDT 7:23 PM EDT
Civil Twilight 6:16 AM EDT 7:50 PM EDT
Nautical Twilight 5:44 AM EDT 8:21 PM EDT
Astronomical Twilight 5:11 AM EDT 8:54 PM EDT
Moon 8:21 PM EDT (9/10) 8:27 AM EDT (9/10)
Length of Visible Light 13h 33m
Length of Day
12h 39m
Waning Gibbous, 96% of the Moon is Illuminated
Sep 10
Waning Gibbous
Sep 15
Last Quarter
Sep 24
New
Oct 1
First Quarter
Oct 8
Full

Hourly Weather History & Observations

Time (EDT) Temp. Dew Point Humidity Pressure Visibility Wind Dir Wind Speed Gust Speed Precip Events Conditions
12:54 AM 70.0 °F 63.0 °F 78% 30.09 in 10.0 mi NE 9.2 mph - N/A   Mostly Cloudy
1:54 AM 69.1 °F 63.0 °F 81% 30.10 in 10.0 mi ENE 6.9 mph - N/A   Overcast
2:29 AM 69.8 °F 62.6 °F 78% 30.10 in 10.0 mi NE 5.8 mph - N/A   Overcast
2:43 AM 69.8 °F 62.6 °F 78% 30.10 in 10.0 mi NE 4.6 mph - N/A   Mostly Cloudy
2:54 AM 69.1 °F 63.0 °F 81% 30.09 in 10.0 mi NNE 4.6 mph - N/A   Overcast
2:58 AM 69.8 °F 62.6 °F 78% 30.09 in 10.0 mi NE 3.5 mph - N/A   Overcast
3:32 AM 68.0 °F 62.6 °F 83% 30.09 in 10.0 mi North 4.6 mph - N/A   Overcast
3:54 AM 68.0 °F 63.0 °F 84% 30.09 in 10.0 mi North 3.5 mph - N/A   Mostly Cloudy
4:54 AM 68.0 °F 63.0 °F 84% 30.10 in 10.0 mi NE 3.5 mph - N/A   Mostly Cloudy
5:54 AM 68.0 °F 62.1 °F 81% 30.11 in 10.0 mi ENE 6.9 mph - N/A   Mostly Cloudy
6:05 AM 66.2 °F 62.6 °F 88% 30.11 in 10.0 mi ENE 10.4 mph - N/A   Mostly Cloudy
6:38 AM 66.2 °F 62.6 °F 88% 30.11 in 10.0 mi East 6.9 mph - N/A   Mostly Cloudy
6:54 AM 66.9 °F 61.0 °F 81% 30.11 in 10.0 mi ENE 8.1 mph - N/A   Mostly Cloudy
7:36 AM 68.0 °F 62.6 °F 83% 30.12 in 10.0 mi NE 6.9 mph - N/A   Mostly Cloudy
7:54 AM 68.0 °F 61.0 °F 78% 30.12 in 10.0 mi ENE 4.6 mph - N/A   Mostly Cloudy
8:54 AM 69.1 °F 62.1 °F 78% 30.12 in 10.0 mi ESE 4.6 mph - N/A   Mostly Cloudy
9:40 AM 69.8 °F 62.6 °F 78% 30.12 in 10.0 mi East 5.8 mph - N/A   Overcast
9:54 AM 71.1 °F 61.0 °F 70% 30.12 in 10.0 mi ESE 8.1 mph - N/A   Overcast
10:05 AM 71.6 °F 60.8 °F 69% 30.12 in 10.0 mi ESE 6.9 mph - N/A   Overcast
10:54 AM 72.0 °F 61.0 °F 68% 30.13 in 10.0 mi East 3.5 mph - N/A   Overcast
11:54 AM 73.0 °F 61.0 °F 66% 30.12 in 10.0 mi SSE 3.5 mph - N/A   Overcast
12:54 PM 75.9 °F 63.0 °F 64% 30.10 in 10.0 mi SSW 5.8 mph - N/A   Mostly Cloudy
1:54 PM 77.0 °F 62.1 °F 60% 30.09 in 10.0 mi Variable 4.6 mph - N/A   Mostly Cloudy
2:54 PM 78.1 °F 62.1 °F 58% 30.07 in 10.0 mi Calm Calm - N/A   Mostly Cloudy
3:54 PM 79.0 °F 62.1 °F 56% 30.04 in 10.0 mi SE 6.9 mph - N/A   Mostly Cloudy
4:54 PM 77.0 °F 62.1 °F 60% 30.02 in 10.0 mi SSE 4.6 mph - N/A   Mostly Cloudy
5:54 PM 77.0 °F 63.0 °F 62% 30.02 in 10.0 mi SSE 4.6 mph - N/A   Scattered Clouds
6:54 PM 75.0 °F 61.0 °F 62% 30.01 in 10.0 mi SSE 5.8 mph - N/A   Mostly Cloudy
7:54 PM 72.0 °F 61.0 °F 68% 30.00 in 10.0 mi SE 4.6 mph - N/A   Scattered Clouds
8:54 PM 71.1 °F 61.0 °F 70% 30.01 in 10.0 mi SSE 4.6 mph - N/A   Mostly Cloudy
9:54 PM 70.0 °F 61.0 °F 73% 30.01 in 10.0 mi Calm Calm - N/A   Mostly Cloudy
10:54 PM 70.0 °F 61.0 °F 73% 30.00 in 10.0 mi Calm Calm - N/A   Mostly Cloudy
11:54 PM 70.0 °F 59.0 °F 68% 30.00 in 10.0 mi SE 4.6 mph - N/A   Mostly Cloudy